Check out our new BloomSky Weather System.

Active alerts


No alerts


Thunder radar  blitzortung!


Rain radar more information rain snow radar


Visit our other weather sites:

Template documentation
and downloads

And another site



Weather Underground History page Text

Daily Summary for April 30, 2017 Units:  English    Metric   Both
« Previous Day
Next Day »
Daily Weekly Monthly Yearly Custom
  High: Low: Average:
Temperature: TemperatureF °F 56.3 °F 64.5 °F
Dew Point: DewpointF °F 42.8 °F 50.5 °F
Humidity: Humidity % 32 % 63 %
Wind Speed: WindSpeedMPH mph 0.0 mph 2.6 mph
Wind Gust: WindSpeedGustMPH mph - -
Wind:- - WNW
Pressure: PressureIn in 29.76 in -
Precipitation: 0.03 in    
Historical Graphs
 
 
Tabular Data for April 30, 2017
Time Temperature Dew Point Pressure Wind Wind Speed Wind Gust Humidity Rainfall Rate (Hourly)
TemperatureF °F DewpointF °F PressureIn in Calm     Humidity % HourlyPrecipIn in
00:01 66.2 °F 62.2 °F 29.79 in NW 9.0 mph 19.0 mph 87 % 0.00 in
00:06 64.8 °F 61.5 °F 29.79 in NNW 3.0 mph 19.0 mph 89 % 0.02 in
00:11 63.7 °F 61.0 °F 29.78 in NW 4.0 mph 19.0 mph 91 % 0.02 in
00:16 63.1 °F 60.8 °F 29.79 in NNW 7.0 mph 15.0 mph 92 % 0.02 in
00:21 62.8 °F 60.4 °F 29.79 in NW 3.0 mph 20.0 mph 92 % 0.02 in
00:26 62.6 °F 60.3 °F 29.79 in NNW 4.0 mph 20.0 mph 92 % 0.02 in
00:31 62.4 °F 60.1 °F 29.79 in NNW 2.0 mph 20.0 mph 92 % 0.03 in
00:36 62.1 °F 59.7 °F 29.79 in WSW 4.0 mph 15.0 mph 92 % 0.03 in
00:41 62.1 °F 59.7 °F 29.79 in NNW 5.0 mph 15.0 mph 92 % 0.03 in
00:46 62.1 °F 59.4 °F 29.79 in North 8.0 mph 15.0 mph 91 % 0.03 in
00:51 62.1 °F 59.4 °F 29.79 in NW 11.0 mph 15.0 mph 91 % 0.03 in
00:56 62.1 °F 59.2 °F 29.79 in NNW 4.0 mph 15.0 mph 90 % 0.03 in
00:58 62.1 °F 59.2 °F 29.79 in NNW 7.0 mph 15.0 mph 90 % 0.03 in
01:03 62.1 °F 59.2 °F 29.78 in NW 5.0 mph 15.0 mph 90 % 0.03 in
01:08 62.1 °F 59.2 °F 29.79 in WNW 3.0 mph 12.0 mph 90 % 0.01 in
01:13 62.1 °F 59.2 °F 29.78 in NW 3.0 mph 10.0 mph 90 % 0.01 in
01:18 62.1 °F 58.5 °F 29.79 in West 2.0 mph 10.0 mph 88 % 0.01 in
01:23 61.9 °F 57.9 °F 29.79 in NW 8.0 mph 10.0 mph 87 % 0.01 in
01:28 61.9 °F 57.6 °F 29.78 in NW 3.0 mph 10.0 mph 86 % 0.01 in
01:33 61.7 °F 57.2 °F 29.78 in WNW 4.0 mph 10.0 mph 85 % 0.00 in
01:39 61.7 °F 57.2 °F 29.78 in NW 3.0 mph 9.0 mph 85 % 0.00 in
01:44 61.7 °F 56.8 °F 29.78 in North 3.0 mph 10.0 mph 84 % 0.00 in
01:48 61.7 °F 56.8 °F 29.78 in WNW 1.0 mph 10.0 mph 84 % 0.00 in
01:53 61.7 °F 56.8 °F 29.77 in NW 3.0 mph 10.0 mph 84 % 0.00 in
01:54 61.7 °F 56.8 °F 29.77 in NW 4.0 mph 10.0 mph 84 % 0.00 in
01:59 61.7 °F 56.8 °F 29.77 in WNW 2.0 mph 10.0 mph 84 % 0.00 in
02:04 61.7 °F 56.5 °F 29.78 in NW 1.0 mph 10.0 mph 83 % 0.00 in
02:09 61.7 °F 56.5 °F 29.77 in NNW 4.0 mph 7.0 mph 83 % 0.00 in
02:14 61.9 °F 56.3 °F 29.78 in SSW 3.0 mph 8.0 mph 82 % 0.00 in
02:19 61.9 °F 56.3 °F 29.79 in NW 5.0 mph 8.0 mph 82 % 0.00 in
02:24 61.9 °F 56.3 °F 29.78 in WNW 1.0 mph 9.0 mph 82 % 0.00 in
02:29 62.1 °F 56.5 °F 29.79 in WNW 4.0 mph 9.0 mph 82 % 0.00 in
02:34 62.1 °F 56.5 °F 29.79 in Calm   9.0 mph 82 % 0.00 in
02:39 62.1 °F 56.5 °F 29.79 in West 4.0 mph 7.0 mph 82 % 0.00 in
02:44 61.9 °F 56.3 °F 29.79 in NW 3.0 mph 7.0 mph 82 % 0.00 in
02:49 61.9 °F 56.3 °F 29.79 in NW 6.0 mph 7.0 mph 82 % 0.00 in
02:54 61.9 °F 55.9 °F 29.79 in WNW 5.0 mph 9.0 mph 81 % 0.00 in
02:59 61.9 °F 55.9 °F 29.78 in WNW 3.0 mph 11.0 mph 81 % 0.00 in
03:04 61.9 °F 55.9 °F 29.79 in West 1.0 mph 11.0 mph 81 % 0.00 in
03:09 61.9 °F 55.6 °F 29.79 in NW 3.0 mph 11.0 mph 80 % 0.00 in
03:14 61.9 °F 55.9 °F 29.79 in WNW 4.0 mph 11.0 mph 81 % 0.00 in
03:19 61.9 °F 55.9 °F 29.78 in WNW 5.0 mph 11.0 mph 81 % 0.00 in
03:24 61.9 °F 55.9 °F 29.79 in WNW 2.0 mph 9.0 mph 81 % 0.00 in
03:29 61.9 °F 55.9 °F 29.78 in NNW 2.0 mph 9.0 mph 81 % 0.00 in
03:34 61.9 °F 55.9 °F 29.77 in NW 4.0 mph 9.0 mph 81 % 0.00 in
03:39 61.9 °F 55.9 °F 29.77 in WNW 1.0 mph 6.0 mph 81 % 0.00 in
03:44 61.9 °F 56.3 °F 29.78 in NE 2.0 mph 6.0 mph 82 % 0.00 in
03:49 61.9 °F 55.9 °F 29.79 in Calm   6.0 mph 81 % 0.00 in
03:54 61.9 °F 55.9 °F 29.81 in SSW 1.0 mph 6.0 mph 81 % 0.00 in
03:59 61.9 °F 55.9 °F 29.81 in Calm   6.0 mph 81 % 0.00 in
04:04 61.9 °F 55.2 °F 29.81 in WNW 3.0 mph 6.0 mph 79 % 0.00 in
04:09 61.9 °F 54.9 °F 29.81 in West 2.0 mph 6.0 mph 78 % 0.00 in
04:14 62.1 °F 54.7 °F 29.80 in NW 3.0 mph 6.0 mph 77 % 0.00 in
04:19 62.1 °F 54.3 °F 29.79 in NW 2.0 mph 6.0 mph 76 % 0.00 in
04:24 62.1 °F 54.3 °F 29.77 in NW 4.0 mph 6.0 mph 76 % 0.00 in
04:29 62.1 °F 54.0 °F 29.76 in West 1.0 mph 6.0 mph 75 % 0.00 in
04:34 62.1 °F 54.0 °F 29.76 in North 1.0 mph 8.0 mph 75 % 0.00 in
04:39 62.1 °F 54.0 °F 29.76 in WNW 2.0 mph 8.0 mph 75 % 0.00 in
04:44 62.1 °F 54.0 °F 29.76 in West 3.0 mph 9.0 mph 75 % 0.00 in
04:49 61.9 °F 54.3 °F 29.77 in WNW 3.0 mph 9.0 mph 76 % 0.00 in
04:54 61.9 °F 54.3 °F 29.78 in West 1.0 mph 9.0 mph 76 % 0.00 in
04:59 61.9 °F 54.3 °F 29.79 in WNW 1.0 mph 7.0 mph 76 % 0.00 in
05:04 61.9 °F 54.7 °F 29.81 in NW 3.0 mph 7.0 mph 77 % 0.00 in
05:09 61.9 °F 54.7 °F 29.79 in NW 3.0 mph 8.0 mph 77 % 0.00 in
05:14 61.9 °F 54.3 °F 29.78 in Calm   8.0 mph 76 % 0.00 in
05:19 61.7 °F 54.1 °F 29.78 in NNW 2.0 mph 8.0 mph 76 % 0.00 in
05:24 61.9 °F 54.3 °F 29.79 in NW 2.0 mph 8.0 mph 76 % 0.00 in
05:29 61.9 °F 54.7 °F 29.78 in WNW 1.0 mph 5.0 mph 77 % 0.00 in
05:34 61.9 °F 54.3 °F 29.78 in NNW 2.0 mph 5.0 mph 76 % 0.00 in
05:39 61.9 °F 54.3 °F 29.79 in WNW 1.0 mph 6.0 mph 76 % 0.00 in
05:44 61.7 °F 54.1 °F 29.79 in South 1.0 mph 6.0 mph 76 % 0.00 in
05:49 61.7 °F 54.1 °F 29.80 in NNW 1.0 mph 6.0 mph 76 % 0.00 in
05:54 61.7 °F 54.5 °F 29.81 in WNW 3.0 mph 6.0 mph 77 % 0.00 in
05:55 61.7 °F 54.5 °F 29.81 in WNW 2.0 mph 6.0 mph 77 % 0.00 in
06:00 61.9 °F 54.7 °F 29.80 in West 5.0 mph 6.0 mph 77 % 0.00 in
06:05 61.7 °F 54.1 °F 29.80 in NW 5.0 mph 7.0 mph 76 % 0.00 in
06:10 61.5 °F 54.0 °F 29.79 in NW 4.0 mph 14.0 mph 76 % 0.00 in
06:15 61.5 °F 54.0 °F 29.78 in NNW 3.0 mph 14.0 mph 76 % 0.00 in
06:20 61.3 °F 53.8 °F 29.78 in NNW 1.0 mph 14.0 mph 76 % 0.00 in
06:25 61.3 °F 53.8 °F 29.77 in NNW 1.0 mph 12.0 mph 76 % 0.00 in
06:30 61.3 °F 53.8 °F 29.78 in NW 1.0 mph 8.0 mph 76 % 0.00 in
06:35 61.3 °F 53.8 °F 29.81 in NW 1.0 mph 7.0 mph 76 % 0.00 in
06:40 61.3 °F 53.8 °F 29.81 in Calm   4.0 mph 76 % 0.00 in
06:45 61.3 °F 53.4 °F 29.82 in NW 3.0 mph 4.0 mph 75 % 0.00 in
06:50 61.3 °F 53.8 °F 29.83 in West 1.0 mph 6.0 mph 76 % 0.00 in
06:55 61.3 °F 53.8 °F 29.82 in NW 2.0 mph 7.0 mph 76 % 0.00 in
06:56 61.3 °F 53.8 °F 29.82 in NW 2.0 mph 7.0 mph 76 % 0.00 in
07:01 61.3 °F 53.8 °F 29.81 in Calm   7.0 mph 76 % 0.00 in
07:06 61.3 °F 53.8 °F 29.81 in NW 1.0 mph 5.0 mph 76 % 0.00 in
07:11 61.2 °F 53.2 °F 29.81 in NW 2.0 mph 6.0 mph 75 % 0.00 in
07:12 61.2 °F 52.9 °F 29.81 in NW 1.0 mph 6.0 mph 74 % 0.00 in
07:17 61.2 °F 52.9 °F 29.82 in NW 5.0 mph 6.0 mph 74 % 0.00 in
07:22 61.0 °F 52.7 °F 29.83 in NW 3.0 mph 7.0 mph 74 % 0.00 in
07:27 61.0 °F 52.7 °F 29.83 in NW 2.0 mph 7.0 mph 74 % 0.00 in
07:32 61.0 °F 52.7 °F 29.84 in NW 1.0 mph 7.0 mph 74 % 0.00 in
07:37 61.0 °F 52.7 °F 29.85 in NW 3.0 mph 7.0 mph 74 % 0.00 in
07:42 61.2 °F 53.2 °F 29.85 in NNW 6.0 mph 7.0 mph 75 % 0.00 in
07:47 61.0 °F 52.7 °F 29.86 in NW 4.0 mph 7.0 mph 74 % 0.00 in
07:52 61.0 °F 52.7 °F 29.85 in Calm   9.0 mph 74 % 0.00 in
07:57 61.0 °F 52.7 °F 29.85 in NNW 1.0 mph 9.0 mph 74 % 0.00 in
08:02 60.8 °F 52.5 °F 29.85 in NNW 4.0 mph 11.0 mph 74 % 0.00 in
08:07 60.6 °F 52.3 °F 29.85 in NNW 3.0 mph 11.0 mph 74 % 0.00 in
08:12 60.6 °F 52.3 °F 29.85 in WSW 2.0 mph 11.0 mph 74 % 0.00 in
08:17 61.0 °F 53.1 °F 29.85 in WNW 8.0 mph 11.0 mph 75 % 0.00 in
08:22 61.2 °F 52.9 °F 29.85 in NW 7.0 mph 9.0 mph 74 % 0.00 in
08:27 61.3 °F 53.1 °F 29.85 in NNE 5.0 mph 11.0 mph 74 % 0.00 in
08:32 61.7 °F 53.2 °F 29.85 in NNW 1.0 mph 11.0 mph 74 % 0.00 in
08:37 62.1 °F 53.2 °F 29.86 in NW 2.0 mph 11.0 mph 73 % 0.00 in
08:42 62.6 °F 53.4 °F 29.86 in NW 4.0 mph 10.0 mph 72 % 0.00 in
08:47 62.4 °F 53.2 °F 29.86 in North 5.0 mph 10.0 mph 72 % 0.00 in
08:52 62.4 °F 53.2 °F 29.85 in West 5.0 mph 10.0 mph 72 % 0.00 in
08:57 62.1 °F 53.2 °F 29.86 in NW 6.0 mph 11.0 mph 73 % 0.00 in
09:02 62.1 °F 53.6 °F 29.86 in WNW 5.0 mph 11.0 mph 74 % 0.00 in
09:07 62.1 °F 52.9 °F 29.87 in NW 5.0 mph 11.0 mph 72 % 0.00 in
09:12 61.7 °F 52.9 °F 29.88 in NE 3.0 mph 12.0 mph 73 % 0.00 in
09:17 61.5 °F 52.3 °F 29.88 in WNW 5.0 mph 12.0 mph 72 % 0.00 in
09:22 61.5 °F 52.7 °F 29.88 in SW 2.0 mph 12.0 mph 73 % 0.00 in
09:27 61.3 °F 52.7 °F 29.89 in NNW 1.0 mph 9.0 mph 73 % 0.00 in
09:32 61.3 °F 53.1 °F 29.89 in NW 4.0 mph 9.0 mph 74 % 0.00 in
09:38 61.3 °F 53.4 °F 29.90 in WSW 2.0 mph 9.0 mph 75 % 0.00 in
09:43 61.2 °F 52.9 °F 29.91 in NNW 7.0 mph 9.0 mph 74 % 0.00 in
09:48 61.3 °F 53.4 °F 29.90 in North 2.0 mph 11.0 mph 75 % 0.00 in
09:53 61.3 °F 53.4 °F 29.91 in Calm   11.0 mph 75 % 0.00 in
09:58 61.3 °F 53.8 °F 29.91 in WSW 3.0 mph 11.0 mph 76 % 0.00 in
10:03 61.3 °F 53.4 °F 29.91 in NW 8.0 mph 9.0 mph 75 % 0.00 in
10:08 61.2 °F 52.9 °F 29.91 in WNW 1.0 mph 13.0 mph 74 % 0.00 in
10:13 61.2 °F 52.5 °F 29.91 in NW 4.0 mph 13.0 mph 73 % 0.00 in
10:18 61.0 °F 52.7 °F 29.91 in WNW 6.0 mph 13.0 mph 74 % 0.00 in
10:23 61.0 °F 52.3 °F 29.91 in NW 5.0 mph 11.0 mph 73 % 0.00 in
10:28 61.0 °F 52.0 °F 29.92 in NW 3.0 mph 9.0 mph 72 % 0.00 in
10:33 61.0 °F 52.0 °F 29.92 in NW 4.0 mph 9.0 mph 72 % 0.00 in
10:38 60.6 °F 49.6 °F 29.93 in West 1.0 mph 9.0 mph 67 % 0.00 in
10:41 60.6 °F 49.3 °F 29.93 in NW 4.0 mph 9.0 mph 66 % 0.00 in
10:46 60.3 °F 43.5 °F 29.93 in NW 7.0 mph 13.0 mph 54 % 0.00 in
10:51 60.1 °F 43.3 °F 29.93 in NNW 6.0 mph 18.0 mph 54 % 0.00 in
10:56 59.9 °F 42.8 °F 29.93 in NNW 5.0 mph 18.0 mph 53 % 0.00 in
11:02 59.9 °F 42.8 °F 29.94 in NW 4.0 mph 18.0 mph 53 % 0.00 in
11:07 60.1 °F 43.3 °F 29.94 in NNE 2.0 mph 15.0 mph 54 % 0.00 in
11:12 60.3 °F 44.1 °F 29.94 in NNW 8.0 mph 13.0 mph 55 % 0.00 in
11:17 60.4 °F 43.7 °F 29.94 in NNW 6.0 mph 13.0 mph 54 % 0.00 in
11:22 60.8 °F 44.6 °F 29.93 in SW 5.0 mph 15.0 mph 55 % 0.00 in
11:27 61.2 °F 45.3 °F 29.93 in NW 11.0 mph 15.0 mph 56 % 0.00 in
11:32 61.3 °F 45.5 °F 29.94 in NNE 5.0 mph 15.0 mph 56 % 0.00 in
11:37 61.2 °F 45.9 °F 29.94 in NW 4.0 mph 13.0 mph 57 % 0.00 in
11:42 61.7 °F 47.3 °F 29.94 in WSW 1.0 mph 13.0 mph 59 % 0.00 in
11:47 62.2 °F 47.7 °F 29.94 in NNW 1.0 mph 12.0 mph 59 % 0.00 in
11:52 62.6 °F 48.0 °F 29.94 in NW 3.0 mph 9.0 mph 59 % 0.00 in
11:57 62.4 °F 47.5 °F 29.94 in WSW 3.0 mph 8.0 mph 58 % 0.00 in
12:02 62.2 °F 48.2 °F 29.94 in West 4.0 mph 8.0 mph 60 % 0.00 in
12:07 63.0 °F 49.3 °F 29.93 in NW 3.0 mph 8.0 mph 61 % 0.00 in
12:12 64.0 °F 49.8 °F 29.93 in NW 2.0 mph 7.0 mph 60 % 0.00 in
12:17 64.6 °F 50.9 °F 29.93 in NW 1.0 mph 8.0 mph 61 % 0.00 in
12:22 64.9 °F 49.3 °F 29.93 in NW 6.0 mph 8.0 mph 57 % 0.00 in
12:27 65.8 °F 49.6 °F 29.93 in WNW 1.0 mph 10.0 mph 56 % 0.00 in
12:32 66.4 °F 49.6 °F 29.92 in WSW 3.0 mph 14.0 mph 55 % 0.00 in
12:37 66.7 °F 50.5 °F 29.93 in West 5.0 mph 14.0 mph 56 % 0.00 in
12:42 68.0 °F 50.2 °F 29.93 in SSW 1.0 mph 14.0 mph 53 % 0.00 in
12:47 68.4 °F 48.9 °F 29.93 in NW 11.0 mph 11.0 mph 50 % 0.00 in
12:52 67.5 °F 47.7 °F 29.93 in WNW 2.0 mph 14.0 mph 49 % 0.00 in
12:57 67.1 °F 47.8 °F 29.93 in WNW 2.0 mph 14.0 mph 50 % 0.00 in
13:02 66.7 °F 46.9 °F 29.92 in SSW 2.0 mph 14.0 mph 49 % 0.00 in
13:07 67.3 °F 47.5 °F 29.93 in SSE 1.0 mph 14.0 mph 49 % 0.00 in
13:12 67.3 °F 48.0 °F 29.92 in NW 1.0 mph 11.0 mph 50 % 0.00 in
13:17 68.0 °F 48.2 °F 29.92 in North 7.0 mph 11.0 mph 49 % 0.00 in
13:22 68.5 °F 48.0 °F 29.92 in WSW 4.0 mph 11.0 mph 48 % 0.00 in
13:27 68.5 °F 45.1 °F 29.92 in WNW 6.0 mph 11.0 mph 43 % 0.00 in
13:32 68.2 °F 47.1 °F 29.92 in NNW 9.0 mph 12.0 mph 47 % 0.00 in
13:37 68.0 °F 47.7 °F 29.92 in NW 3.0 mph 12.0 mph 48 % 0.00 in
13:42 68.0 °F 48.7 °F 29.92 in Calm   12.0 mph 50 % 0.00 in
13:47 68.4 °F 47.3 °F 29.92 in North 9.0 mph 11.0 mph 47 % 0.00 in
13:52 68.4 °F 48.4 °F 29.92 in Calm   11.0 mph 49 % 0.00 in
13:57 68.7 °F 46.6 °F 29.91 in NW 8.0 mph 11.0 mph 45 % 0.00 in
14:02 68.0 °F 46.9 °F 29.91 in NW 6.0 mph 13.0 mph 47 % 0.00 in
14:07 67.8 °F 46.9 °F 29.91 in NW 4.0 mph 13.0 mph 47 % 0.00 in
14:12 67.6 °F 47.3 °F 29.91 in NNW 9.0 mph 15.0 mph 48 % 0.00 in
14:17 68.4 °F 48.4 °F 29.91 in WNW 5.0 mph 15.0 mph 49 % 0.00 in
14:22 69.3 °F 48.2 °F 29.91 in NW 3.0 mph 15.0 mph 47 % 0.00 in
14:27 69.4 °F 47.8 °F 29.91 in NNW 3.0 mph 15.0 mph 46 % 0.00 in
14:32 69.3 °F 48.2 °F 29.91 in NW 4.0 mph 10.0 mph 47 % 0.00 in
14:37 70.0 °F 48.7 °F 29.91 in Calm   10.0 mph 47 % 0.00 in
14:42 70.3 °F 47.5 °F 29.91 in WNW 5.0 mph 8.0 mph 44 % 0.00 in
14:47 69.8 °F 47.5 °F 29.90 in ENE 1.0 mph 15.0 mph 45 % 0.00 in
14:52 69.8 °F 46.9 °F 29.90 in NNW 2.0 mph 15.0 mph 44 % 0.00 in
14:57 70.0 °F 47.7 °F 29.90 in SW 2.0 mph 15.0 mph 45 % 0.00 in
15:02 71.1 °F 48.6 °F 29.90 in WNW 1.0 mph 12.0 mph 45 % 0.00 in
15:07 71.6 °F 48.6 °F 29.90 in North 4.0 mph 11.0 mph 44 % 0.00 in
15:12 71.2 °F 48.2 °F 29.90 in North 3.0 mph 9.0 mph 44 % 0.00 in
15:17 71.1 °F 48.6 °F 29.89 in WNW 8.0 mph 14.0 mph 45 % 0.00 in
15:22 70.9 °F 48.6 °F 29.89 in WNW 5.0 mph 14.0 mph 45 % 0.00 in
15:27 71.2 °F 48.2 °F 29.89 in NW 4.0 mph 14.0 mph 44 % 0.00 in
15:32 71.4 °F 48.4 °F 29.89 in SW 1.0 mph 9.0 mph 44 % 0.00 in
15:37 71.8 °F 49.3 °F 29.88 in NNW 3.0 mph 13.0 mph 45 % 0.00 in
15:42 72.1 °F 49.6 °F 29.88 in Calm   13.0 mph 45 % 0.00 in
15:47 72.3 °F 49.8 °F 29.88 in NW 1.0 mph 13.0 mph 45 % 0.00 in
15:52 73.0 °F 49.8 °F 29.88 in WSW 2.0 mph 10.0 mph 44 % 0.00 in
15:57 73.4 °F 49.5 °F 29.88 in North 4.0 mph 10.0 mph 43 % 0.00 in
16:02 72.9 °F 49.1 °F 29.88 in West 7.0 mph 13.0 mph 43 % 0.00 in
16:07 73.6 °F 47.8 °F 29.87 in Calm   13.0 mph 40 % 0.00 in
16:09 73.8 °F 49.3 °F 29.87 in WNW 2.0 mph 13.0 mph 42 % 0.00 in
16:14 74.5 °F 48.6 °F 29.87 in ENE 1.0 mph 13.0 mph 40 % 0.00 in
16:19 74.7 °F 46.6 °F 29.87 in West 3.0 mph 7.0 mph 37 % 0.00 in
16:24 74.3 °F 45.0 °F 29.87 in NW 5.0 mph 7.0 mph 35 % 0.00 in
16:29 74.1 °F 46.2 °F 29.87 in WNW 1.0 mph 10.0 mph 37 % 0.00 in
16:34 74.7 °F 47.3 °F 29.87 in NW 5.0 mph 10.0 mph 38 % 0.00 in
16:39 74.7 °F 45.1 °F 29.87 in WSW 2.0 mph 10.0 mph 35 % 0.00 in
16:44 75.0 °F 45.5 °F 29.87 in West 7.0 mph 9.0 mph 35 % 0.00 in
16:49 74.8 °F 45.3 °F 29.87 in WSW 1.0 mph 9.0 mph 35 % 0.00 in
16:54 74.8 °F 43.9 °F 29.87 in NNW 8.0 mph 9.0 mph 33 % 0.00 in
16:59 74.5 °F 43.5 °F 29.87 in West 2.0 mph 11.0 mph 33 % 0.00 in
17:04 74.8 °F 45.3 °F 29.87 in NW 5.0 mph 13.0 mph 35 % 0.00 in
17:09 75.4 °F 43.5 °F 29.87 in WNW 1.0 mph 13.0 mph 32 % 0.00 in
17:14 75.4 °F 45.1 °F 29.87 in West 3.0 mph 13.0 mph 34 % 0.00 in
17:19 75.4 °F 44.2 °F 29.87 in West 4.0 mph 10.0 mph 33 % 0.00 in
17:24 75.0 °F 44.8 °F 29.87 in Calm   9.0 mph 34 % 0.00 in
17:29 75.2 °F 45.0 °F 29.87 in NNW 1.0 mph 9.0 mph 34 % 0.00 in
17:35 74.7 °F 43.7 °F 29.87 in NW 3.0 mph 11.0 mph 33 % 0.00 in
17:40 74.5 °F 44.2 °F 29.87 in WNW 6.0 mph 11.0 mph 34 % 0.00 in
17:45 74.7 °F 43.7 °F 29.87 in West 5.0 mph 11.0 mph 33 % 0.00 in
17:50 74.8 °F 46.0 °F 29.88 in SSW 2.0 mph 11.0 mph 36 % 0.00 in
17:55 74.7 °F 44.4 °F 29.88 in West 2.0 mph 11.0 mph 34 % 0.00 in
18:00 74.8 °F 45.3 °F 29.88 in SW 1.0 mph 8.0 mph 35 % 0.00 in
18:05 75.0 °F 44.8 °F 29.88 in WSW 1.0 mph 8.0 mph 34 % 0.00 in
18:10 75.0 °F 44.8 °F 29.88 in SE 1.0 mph 7.0 mph 34 % 0.00 in
18:15 74.8 °F 44.6 °F 29.87 in South 1.0 mph 8.0 mph 34 % 0.00 in
18:20 74.8 °F 45.3 °F 29.88 in SW 2.0 mph 8.0 mph 35 % 0.00 in
18:25 74.8 °F 45.3 °F 29.88 in WNW 2.0 mph 8.0 mph 35 % 0.00 in
18:30 74.7 °F 44.4 °F 29.88 in WNW 2.0 mph 8.0 mph 34 % 0.00 in
18:35 74.5 °F 44.2 °F 29.88 in NW 2.0 mph 7.0 mph 34 % 0.00 in
18:40 74.5 °F 45.0 °F 29.88 in WSW 2.0 mph 10.0 mph 35 % 0.00 in
18:45 74.5 °F 45.0 °F 29.88 in WSW 1.0 mph 10.0 mph 35 % 0.00 in
18:50 74.5 °F 45.0 °F 29.88 in West 4.0 mph 10.0 mph 35 % 0.00 in
18:55 74.1 °F 44.8 °F 29.88 in Calm   7.0 mph 35 % 0.00 in
19:00 74.1 °F 44.8 °F 29.88 in WNW 2.0 mph 7.0 mph 35 % 0.00 in
19:05 73.9 °F 44.6 °F 29.88 in Calm   7.0 mph 35 % 0.00 in
19:10 73.8 °F 44.4 °F 29.88 in West 2.0 mph 8.0 mph 35 % 0.00 in
19:15 73.0 °F 45.1 °F 29.88 in Calm   8.0 mph 37 % 0.00 in
19:20 72.3 °F 44.6 °F 29.89 in Calm   8.0 mph 37 % 0.00 in
19:25 72.0 °F 45.0 °F 29.89 in Calm   6.0 mph 38 % 0.00 in
19:30 71.4 °F 44.4 °F 29.89 in Calm   5.0 mph 38 % 0.00 in
19:35 71.1 °F 44.8 °F 29.89 in Calm   5.0 mph 39 % 0.00 in
19:40 70.5 °F 45.7 °F 29.88 in Calm   5.0 mph 41 % 0.00 in
19:45 70.2 °F 45.3 °F 29.88 in Calm   3.0 mph 41 % 0.00 in
19:50 69.4 °F 44.8 °F 29.88 in Calm   2.0 mph 41 % 0.00 in
19:55 68.7 °F 44.8 °F 29.89 in Calm   1.0 mph 42 % 0.00 in
20:00 68.4 °F 46.8 °F 29.89 in Calm   1.0 mph 46 % 0.00 in
20:05 67.6 °F 47.3 °F 29.89 in WSW 1.0 mph 1.0 mph 48 % 0.00 in
20:10 67.1 °F 47.8 °F 29.89 in Calm   1.0 mph 50 % 0.00 in
20:15 66.6 °F 47.3 °F 29.90 in Calm   1.0 mph 50 % 0.00 in
20:20 66.0 °F 46.8 °F 29.90 in Calm   1.0 mph 50 % 0.00 in
20:25 65.7 °F 47.5 °F 29.90 in Calm   1.0 mph 52 % 0.00 in
20:30 65.1 °F 47.1 °F 29.90 in Calm   1.0 mph 52 % 0.00 in
20:35 64.6 °F 47.5 °F 29.91 in Calm     54 % 0.00 in
20:40 64.2 °F 47.7 °F 29.91 in Calm     55 % 0.00 in
20:45 64.0 °F 47.5 °F 29.91 in Calm     55 % 0.00 in
20:50 63.9 °F 47.8 °F 29.91 in Calm     56 % 0.00 in
20:55 63.5 °F 47.1 °F 29.91 in Calm     55 % 0.00 in
21:00 63.3 °F 47.3 °F 29.91 in Calm     56 % 0.00 in
21:05 63.0 °F 48.0 °F 29.92 in Calm     58 % 0.00 in
21:10 62.4 °F 47.8 °F 29.92 in Calm     59 % 0.00 in
21:15 62.2 °F 48.2 °F 29.92 in Calm     60 % 0.00 in
21:21 62.1 °F 47.5 °F 29.92 in Calm     59 % 0.00 in
21:26 61.7 °F 47.7 °F 29.92 in Calm     60 % 0.00 in
21:31 61.3 °F 47.3 °F 29.92 in Calm     60 % 0.00 in
21:36 60.6 °F 46.6 °F 29.92 in Calm     60 % 0.00 in
21:41 60.3 °F 47.1 °F 29.93 in Calm     62 % 0.00 in
21:46 60.3 °F 48.0 °F 29.93 in Calm     64 % 0.00 in
21:51 60.3 °F 48.9 °F 29.93 in Calm     66 % 0.00 in
21:56 60.3 °F 48.9 °F 29.93 in Calm     66 % 0.00 in
22:01 60.1 °F 48.7 °F 29.93 in Calm     66 % 0.00 in
22:06 59.7 °F 48.7 °F 29.93 in Calm     67 % 0.00 in
22:11 59.5 °F 48.9 °F 29.94 in Calm     68 % 0.00 in
22:16 59.7 °F 49.5 °F 29.94 in Calm   1.0 mph 69 % 0.00 in
22:21 59.7 °F 50.0 °F 29.94 in Calm   1.0 mph 70 % 0.00 in
22:26 59.5 °F 49.3 °F 29.94 in Calm   1.0 mph 69 % 0.00 in
22:31 59.0 °F 48.9 °F 29.94 in Calm     69 % 0.00 in
22:36 58.5 °F 48.4 °F 29.94 in Calm     69 % 0.00 in
22:41 58.1 °F 48.4 °F 29.94 in Calm     70 % 0.00 in
22:46 57.9 °F 48.9 °F 29.95 in Calm     72 % 0.00 in
22:51 58.1 °F 49.1 °F 29.94 in Calm     72 % 0.00 in
22:56 58.3 °F 49.3 °F 29.95 in Calm     72 % 0.00 in
23:01 58.1 °F 48.7 °F 29.95 in Calm     71 % 0.00 in
23:06 57.9 °F 48.9 °F 29.95 in Calm     72 % 0.00 in
23:11 57.9 °F 49.3 °F 29.95 in Calm     73 % 0.00 in
23:16 57.9 °F 49.3 °F 29.95 in Calm     73 % 0.00 in
23:21 58.1 °F 49.5 °F 29.95 in Calm     73 % 0.00 in
23:26 57.7 °F 48.7 °F 29.95 in Calm     72 % 0.00 in
23:31 57.7 °F 49.8 °F 29.95 in Calm     75 % 0.00 in
23:36 57.4 °F 49.1 °F 29.95 in Calm     74 % 0.00 in
23:41 57.0 °F 48.7 °F 29.95 in Calm     74 % 0.00 in
23:46 56.7 °F 48.7 °F 29.95 in Calm     75 % 0.00 in
23:51 56.3 °F 48.9 °F 29.95 in Calm     76 % 0.00 in
23:56 56.5 °F 49.3 °F 29.95 in Calm     77 % 0.00 in
Spring, Texas: Villages of Bridgestone
Compliments of Weather Underground - 2.75 mb

Script developed by  Jim McMurry - jmcmurry@mwt.net Adapted for the template by  Wim van der Kuil - Leuven-Template.eu

You find our weather info also at:

UK Metoffice

WeatherCloud

Weather Underground

Mid-South Weather Network

AWEKAS

Citizen Weather Observer Program (CWOP)

HAMweather, WeatherForYou, PWS Weather

Equipment we use:

Weather-station
Davis Vantage Vue

Weather-program
Meteohub

Weather-server
Debian 7.9 x86 (Guest)

Provider
DreamHost

Davis Vantage Vue

Meteohub

Debian 7.9 x86 (Guest)

DreamHost